Regional Weather Roundup
Issued by NWS

Home | Current Version | Previous Version | Graphics & Text | Print | Product List | Glossary On
Versions: 1 2 3 4 5 6 7 8 9 10 11 12 13 14 15 16 17 18 19 20 21 22 23 24 25 26 27 28 29 30 31 32 33 34 35 36 37 38 39 40 41 42 43 44 45 46 47 48 49 50
000
ASUS43 KLMK 241310
RWRKY
KENTUCKY REGIONAL WEATHER ROUNDUP
NATIONAL WEATHER SERVICE LOUISVILLE KY
900 AM EDT FRI OCT 24 2014

NOTE "FAIR" INDICATES FEW OR NO CLOUDS BELOW 12,000 FEET
WITH NO SIGNIFICANT WEATHER AND/OR OBSTRUCTIONS TO VISIBILITY.

KYZ001>023-026-027-061>063-070>075-241400-
WESTERN AND SOUTH CENTRAL KENTUCKY

CITY           SKY/WX    TMP DP  RH WIND       PRES   REMARKS
PADUCAH        CLOUDY    46  44  93 CALM      30.13S FOG
HENDERSON      CLOUDY   N/A N/A N/A S3        30.12S
OWENSBORO      CLOUDY    47  45  93 SE3       30.14R
HOPKINSVILLE   CLEAR     46  45  99 CALM      30.14S
BOWLING GREEN  PTSUNNY   46  44  93 CALM      30.14S FOG
GLASGOW        SUNNY     43  43 100 CALM      30.13S FOG
$$

KYZ024-025-028>034-038-045-046-053-241400-
NORTH CENTRAL KENTUCKY

CITY           SKY/WX    TMP DP  RH WIND       PRES   REMARKS
LOUISVILLE/SDF PTSUNNY   45  42  89 SE8       30.14R
LOUISVILLE/LOU SUNNY     43  40  89 CALM      30.14S
FORT KNOX      MOSUNNY   40  39  96 CALM      30.12R
$$

KYZ035>037-039>044-047>052-055>060-089>105-241400-
NORTHEAST KENTUCKY

CITY           SKY/WX    TMP DP  RH WIND       PRES   REMARKS
LEXINGTON      MOSUNNY   43  39  86 CALM      30.13S FOG
COVINGTON      MOSUNNY   40  38  93 CALM      30.13R
FRANKFORT      SUNNY     39  36  89 CALM      30.13R
$$

KYZ054-064>069-076>088-106>120-241400-
SOUTHEAST KENTUCKY

CITY           SKY/WX    TMP DP  RH WIND       PRES   REMARKS
JACKSON        CLOUDY    43  40  89 CALM      30.14R
LONDON         CLOUDY    45  41  86 CALM      30.13S
SOMERSET       MOSUNNY   41  41 100 CALM      30.15R
MIDDLESBORO    FOG       42  42 100 CALM      30.15R VSB 1/2
MONTICELLO     MOSUNNY   38  38 100 CALM      30.15R FOG
$$




USA.gov is the U.S. government's official web portal to all federal, state and local government web resources and services.